This is the latest recevied weather packets stored in our database for station/object EA7AIS-10. If no packets are shown the sender has not sent any weather packets the latest 10 day(s).
| Time | Temp. | Humidity | Pressure | Rain* | Wind** | Luminosity | Snow |
|---|---|---|---|---|---|---|---|
| 1777728680 | 22.22° C | 73% | 1015.6 hPa | - | - | - | - |
| 1777727780 | 22.78° C | 71% | 1015.6 hPa | - | - | - | - |
| 1777726880 | 22.78° C | 72% | 1015.8 hPa | - | - | - | - |
| 1777725980 | 21.67° C | 76% | 1015.8 hPa | - | - | - | - |
| 1777725080 | 20.56° C | 82% | 1015.9 hPa | - | - | - | - |
| 1777724180 | 20° C | 83% | 1016 hPa | - | - | - | - |
| 1777723280 | 20° C | 84% | 1016.3 hPa | - | - | - | - |
| 1777721479 | 20.56° C | 83% | 1016.4 hPa | - | - | - | - |
| 1777720579 | 20° C | 85% | 1016.4 hPa | - | - | - | - |
| 1777719679 | 18.89° C | 88% | 1016.5 hPa | - | - | - | - |
| 1777718779 | 18.89° C | 89% | 1016.6 hPa | - | - | - | - |
| 1777717880 | 18.89° C | 89% | 1016.6 hPa | - | - | - | - |
| 1777716979 | 18.89° C | 87% | 1016.6 hPa | - | - | - | - |
| 1777716079 | 18.89° C | 88% | 1016.6 hPa | - | - | - | - |
| 1777715179 | 18.89° C | 87% | 1016.5 hPa | - | - | - | - |
| 1777714279 | 18.89° C | 89% | 1016.6 hPa | - | - | - | - |
| 1777713379 | 18.89° C | 90% | 1016.6 hPa | - | - | - | - |
| 1777712479 | 18.89° C | 89% | 1016.4 hPa | - | - | - | - |
| 1777711579 | 18.89° C | 89% | 1016.4 hPa | - | - | - | - |
| 1777710679 | 18.89° C | 91% | 1016.3 hPa | - | - | - | - |
| 1777709779 | 18.33° C | 91% | 1016.4 hPa | - | - | - | - |
| 1777708879 | 18.33° C | 92% | 1016.3 hPa | - | - | - | - |
| 1777707979 | 18.33° C | 93% | 1016.1 hPa | - | - | - | - |
| 1777707079 | 18.33° C | 93% | 1016.2 hPa | - | - | - | - |
| 1777706179 | 17.78° C | 94% | 1016 hPa | - | - | - | - |
* Rain since midnight (hover to see other rain measurements)
** Current wind speed in m/s (hover to see current wind gust speed)